Flag for Iran Weather past 2 weeks in Behbahan, Iran

Now
75 °F

Passing clouds.


Feels Like: 77 °F
Forecast: 73 / 88 °F
Wind: No wind

Location: Gach Saran Du Gunbadan

Current Time: Oct 20, 2014 at 9:30:30 PM

Latest Report: Oct 20, 2014 at 8:30 PM


Visibility: N/A

Pressure: 30.01 "Hg

Humidity: 27%

Dew point: 39 °F

Location of BehbahanLocation

Historic Weather in Behbahan — Graph

°F

Behbahan temperature yesterday

Maximum temperature yesterday: 84 °F (at 2:30 PM)
Minimum temperature yesterday: 57 °F (at 4:30 AM)
Average temperature yesterday: 72 °F

Past Weeks' High & Low Weather Summary

 TemperatureHumidityPressure
High95 °F (Oct 6, 3:30 PM)83% (Oct 17, 5:30 AM)30.12 "Hg (Oct 17, 5:30 AM)
Low57 °F (Oct 19, 4:30 AM)1% (Oct 11, 2:30 PM)29.80 "Hg (Oct 13, 5:30 AM)
Average80 °F27%30.01 "Hg
* Reported Oct 5 8:30 PM — Oct 20 8:30 PM, Behbahan, Weather by CustomWeather, © 2014

Note: Actual official high and low records may vary slightly from our data, if they occured in-between our weather recording intervals... More about our weather records

Advertising

Behbahan weather history for previous 24 hours

 ConditionsComfort  
Time TempWeatherWind HumidityBarometerVisibility
8:30 PM
Oct 20
75 °FPassing clouds.No wind27%30.01 "HgN/A
7:30 PM77 °FPassing clouds.No wind26%30.01 "HgN/A
6:30 PM82 °FPassing clouds.No wind21%30.01 "HgN/A
5:30 PM86 °FPassing clouds.No wind19%29.98 "HgN/A
4:30 PM88 °FPassing clouds.5 mph19%29.98 "HgN/A
3:30 PM90 °FPassing clouds.7 mph18%29.98 "HgN/A
2:30 PM90 °FScattered clouds.5 mph18%29.98 "HgN/A
1:30 PM88 °FScattered clouds.7 mph21%30.01 "HgN/A
12:30 PM90 °FPassing clouds.12 mph20%30.01 "HgN/A
11:30 AM88 °FPassing clouds.9 mph22%30.04 "HgN/A
10:30 AM86 °FPassing clouds.9 mph15%30.04 "HgN/A
9:30 AM81 °FPassing clouds.7 mph21%30.04 "HgN/A
8:30 AM77 °FSunny.7 mph24%30.04 "Hg10 mi
6:30 AM66 °FClear.No wind37%29.98 "Hg10 mi
11:30 PM
Oct 19
66 °FClear.No wind46%30.01 "Hg10 mi
10:30 PM68 °FClear.No wind46%30.01 "Hg10 mi
9:30 PM70 °FClear.No wind43%30.01 "Hg10 mi
Weather by CustomWeather, © 2014

See weather overviewHow to use our weather pages